[[{"header":{"parameterUnit":"m.s-1","parameterCategory":1,"la1":30.2991,"la2":30.254,"lo1":-89.0895,"lo2":-89.0444,"dy":0.0017,"dx":0.0017,"nx":28,"ny":28,"refTime":"2024-06-01T09:00:00:Z","depth":0,"parameterNumber":2,"parameterNumberName":"U-component_of_WINDS"},"data":[0,0,0,0,0,0,0,0,0,0,0,0,0,0,0,0,0,0,0,0,0,0,0,0,0,0,0,0,0,0,0,0,0,0,0,0,0,0,0,0,0,0,0,0,0,0,0,0,0,0,0,0,0,0,0,0,0,0,0.6289,0.6288,0,0.6235,0.6235,0.6234,0.6181,0.618,0.618,0.6179,0.6124,0.6124,0.6123,0,0,0,0,0,0,0,0,0,0,0,0,0,0.6343,0.6342,0.6289,0.6288,0.6287,0.6236,0.6235,0.6234,0.6181,0.618,0.6179,0.6179,0.6125,0.6124,0.6123,0,0,0,0,0,0,0,0,0,0,0,0,0,0.6308,0.6342,0.6289,0.6255,0.6251,0.6236,0.6235,0.6234,0.6181,0.618,0.6179,0.6178,0.6125,0.6124,0.6123,0.6137,0,0,0.6119,0.6118,0,0,0,0,0,0,0,0,0.631,0.6306,0.626,0.6257,0.6253,0.6214,0.6234,0.6201,0.6182,0.6208,0.6179,0.6178,0.6155,0.6151,0.6144,0.6134,0.6132,0.6119,0.6118,0.6118,0.6117,0,0,0,0,0,0,0,0.6312,0.6308,0.6268,0.626,0.6255,0.6242,0.6235,0.6228,0.6188,0.6205,0.6201,0.6196,0.6153,0.6145,0.6142,0.6131,0.6119,0.6118,0.6117,0.6117,0.6128,0.6129,0,0,0,0,0,0,0.632,0.631,0.6269,0.6266,0.6279,0.6241,0.6235,0.6227,0.6188,0.6181,0.6197,0.6194,0.6147,0.6143,0.614,0.6152,0.6118,0.6117,0.6116,0.6127,0.6128,0.6129,0,0,0,0,0,0,0.6321,0.6317,0.6271,0.6287,0.628,0.6242,0.6234,0.6227,0.6219,0.6181,0.6174,0.6196,0.6146,0.6141,0.6137,0.6149,0.6116,0.6115,0.6126,0.6127,0.6128,0.6177,0,0,0,0,0,0,0.6323,0.6318,0.6323,0.6287,0.628,0.627,0.6235,0.6227,0.6217,0.6212,0.6179,0.6172,0.6145,0.6139,0.6136,0.6147,0.6114,0.6124,0.6126,0.6128,0.6174,0.618,0.6185,0,0,0,0,0,0.6325,0.6339,0.6324,0.6319,0.6285,0.6271,0.6267,0.6235,0.6218,0.6223,0.6198,0.6173,0.6149,0.6139,0.6135,0.6146,0.6123,0.6126,0.6128,0.6172,0.6179,0.6185,0,0,0,0,0,0,0.6378,0.6334,0.6316,0.6319,0.6299,0.6262,0.6267,0.6244,0.6229,0.6225,0.6186,0.6179,0.6179,0.6162,0.6153,0.6156,0.6132,0.6134,0.6167,0.6174,0.6179,0.6183,0.6113,0,0,0,0,0,0.639,0.6382,0.6344,0.6351,0.6341,0.6306,0.6299,0.6276,0.6254,0.6245,0.6221,0.62,0.6187,0.618,0.6166,0.6172,0.6163,0.6177,0.6183,0.6187,0.6189,0.6188,0.6194,0.6136,0.6136,0.6136,0,0,0.6414,0.6389,0.6387,0.636,0.6342,0.6334,0.6299,0.6293,0.6287,0.6244,0.6238,0.622,0.6194,0.6194,0.6193,0.618,0.6202,0.619,0.6194,0.6193,0.6191,0.6197,0.6202,0.6138,0.6138,0.6137,0,0,0.6455,0.6436,0.6438,0.642,0.6393,0.6369,0.637,0.6336,0.6322,0.6315,0.6282,0.6274,0.6254,0.6236,0.6224,0.6256,0.6232,0.6253,0.6281,0.6281,0.6286,0.629,0.6299,0.6304,0.6255,0.6255,0.6255,0,0.6488,0.6476,0.6442,0.6437,0.6426,0.6387,0.6388,0.6372,0.6342,0.6335,0.6321,0.6293,0.6273,0.6268,0.6275,0.6268,0.6266,0.6256,0.6288,0.6291,0.6294,0.6303,0.6307,0.6258,0.6257,0.6257,0.6257,0,0.6518,0.6509,0.6514,0.6485,0.6475,0.6473,0.6438,0.6432,0.641,0.6387,0.638,0.6354,0.6334,0.6331,0.631,0.6322,0.6315,0.6295,0.627,0.6303,0.6311,0.6314,0.6261,0.626,0.626,0.6259,0,0,0.6589,0.6541,0.6544,0.6529,0.6496,0.6488,0.6485,0.6464,0.6458,0.6439,0.6433,0.6416,0.6397,0.6384,0.636,0.6361,0.6385,0.634,0.6339,0.6348,0.6395,0.6409,0.6414,0.6369,0.637,0.637,0.6397,0,0.6623,0.6613,0.6582,0.6582,0.6573,0.6535,0.6531,0.651,0.6489,0.6477,0.6454,0.6441,0.6418,0.6409,0.6408,0.6383,0.6394,0.6381,0.6363,0.6363,0.6369,0.6418,0.6434,0.646,0.64,0.64,0.64,0,0.6661,0.6643,0.6641,0.6607,0.6602,0.6599,0.6577,0.6567,0.6542,0.6526,0.6511,0.6484,0.6477,0.6454,0.6442,0.6434,0.6425,0.6411,0.6411,0.6407,0.6383,0.6414,0.6468,0.6471,0.6405,0.6405,0.6404,0,0.6711,0.6687,0.6682,0.6671,0.6631,0.663,0.6613,0.6587,0.6576,0.6557,0.6549,0.653,0.6519,0.6504,0.6472,0.6459,0.6463,0.6439,0.6449,0.645,0.6451,0.6451,0.6502,0.6448,0.6447,0.6447,0.6447,0,0.6751,0.6751,0.6704,0.6701,0.67,0.6664,0.6664,0.6643,0.662,0.6611,0.6578,0.6571,0.653,0.6518,0.6494,0.6487,0.6482,0.6468,0.6462,0.6471,0.6472,0.6463,0.646,0.6448,0.6448,0.6448,0.6448,0,0.6806,0.6775,0.6768,0.673,0.6721,0.6721,0.6689,0.6684,0.666,0.665,0.6646,0.6609,0.6592,0.656,0.6535,0.6518,0.6516,0.6505,0.6525,0.652,0.6532,0.6531,0.6578,0.6582,0.6526,0.6527,0.6528,0,0.6833,0.6832,0.6795,0.6787,0.6771,0.6759,0.6748,0.6712,0.6702,0.6672,0.667,0.6651,0.6634,0.661,0.658,0.6561,0.6548,0.6566,0.6545,0.6553,0.6546,0.6546,0.6545,0.657,0.6571,0.6572,0.6572,0,0.6883,0.6868,0.6853,0.6832,0.682,0.6802,0.6782,0.6777,0.6737,0.6726,0.6709,0.6696,0.667,0.6651,0.6627,0.6609,0.6583,0.6579,0.658,0.6589,0.66,0.6592,0.6536,0.6578,0.6577,0.6577,0.6577,0.6576,0.6924,0.6921,0.6894,0.6878,0.6859,0.6841,0.6834,0.6809,0.6795,0.6771,0.6751,0.6735,0.6708,0.6672,0.6656,0.6642,0.663,0.6632,0.6632,0.6633,0.6636,0.6603,0.6638,0.6638,0.6637,0.6637,0.6637,0,0.6971,0.6951,0.6937,0.691,0.6897,0.6875,0.6852,0.6842,0.6829,0.6806,0.679,0.6769,0.675,0.6719,0.6697,0.6693,0.668,0.6688,0.6687,0.6683,0.6649,0.6649,0.6698,0.6698,0.6698,0.6698,0.6698,0.6698,0.6994,0.6987,0.6968,0.6951,0.6931,0.6915,0.6904,0.6886,0.6868,0.6846,0.6831,0.681,0.6783,0.6759,0.6741,0.6732,0.6725,0.6736,0.6723,0.6692,0.6686,0.668,0.668,0.6735,0.6735,0.6758,0.6758,0.6758]},{"header":{"parameterUnit":"m.s-1","parameterCategory":1,"la1":30.2991,"la2":30.254,"lo1":-89.0895,"lo2":-89.0444,"dy":0.0017,"dx":0.0017,"nx":28,"ny":28,"refTime":"2024-06-01T09:00:00:Z","depth":0,"parameterNumber":3,"parameterNumberName":"V-component_of_WINDS"},"data":[0,0,0,0,0,0,0,0,0,0,0,0,0,0,0,0,0,0,0,0,0,0,0,0,0,0,0,0,0,0,0,0,0,0,0,0,0,0,0,0,0,0,0,0,0,0,0,0,0,0,0,0,0,0,0,0,0,0,4.3118,4.3118,0,4.3153,4.3154,4.3154,4.3094,4.3092,4.309,4.3088,4.3121,4.3123,4.3126,0,0,0,0,0,0,0,0,0,0,0,0,0,4.2993,4.2996,4.3118,4.3118,4.3119,4.3153,4.3154,4.3154,4.3095,4.3092,4.309,4.3087,4.312,4.3123,4.3126,0,0,0,0,0,0,0,0,0,0,0,0,0,4.304,4.2997,4.3118,4.3093,4.3091,4.3153,4.3154,4.3154,4.3095,4.3092,4.3089,4.3086,4.3119,4.3123,4.3127,4.3213,0,0,4.314,4.3141,0,0,0,0,0,0,0,0,4.3037,4.3045,4.3097,4.3095,4.3093,4.3116,4.3122,4.3174,4.3096,4.3094,4.3088,4.3085,4.3122,4.3125,4.3138,4.3215,4.3216,4.314,4.3142,4.3144,4.3145,0,0,0,0,0,0,0,4.3034,4.3043,4.3132,4.3097,4.3095,4.3079,4.3082,4.3131,4.3124,4.3094,4.3089,4.3095,4.312,4.3135,4.3139,4.3216,4.314,4.3143,4.3146,4.3148,4.3362,4.3365,0,0,0,0,0,0,4.3035,4.3041,4.3131,4.3133,4.3057,4.3084,4.3087,4.3112,4.3123,4.3122,4.3097,4.3092,4.3129,4.3134,4.314,4.3239,4.3144,4.3148,4.315,4.3359,4.3363,4.3366,0,0,0,0,0,0,4.3032,4.3043,4.3129,4.3086,4.3095,4.3089,4.3117,4.3114,4.3129,4.3126,4.3124,4.3114,4.3127,4.3134,4.3195,4.324,4.315,4.3154,4.3355,4.336,4.3365,4.3441,0,0,0,0,0,0,4.3029,4.3043,4.3077,4.3087,4.3098,4.3186,4.312,4.3117,4.3136,4.313,4.3141,4.314,4.3125,4.3189,4.3199,4.3244,4.3157,4.3351,4.3357,4.3363,4.3434,4.3448,4.3459,0,0,0,0,0,4.3025,4.3097,4.3079,4.309,4.3141,4.3188,4.3195,4.3177,4.314,4.3173,4.3171,4.314,4.3234,4.3196,4.3206,4.3253,4.3348,4.3356,4.3363,4.3429,4.3445,4.3459,0,0,0,0,0,0,4.3092,4.3098,4.3078,4.3156,4.3172,4.3178,4.322,4.3195,4.3221,4.3214,4.3189,4.3192,4.3258,4.3262,4.322,4.3336,4.3284,4.3294,4.3331,4.3346,4.3359,4.3356,4.316,0,0,0,0,0,4.3116,4.3156,4.3158,4.3226,4.3236,4.3226,4.3247,4.3232,4.3247,4.3253,4.3256,4.3271,4.3303,4.3325,4.3355,4.3435,4.3435,4.3472,4.3484,4.3494,4.3503,4.3543,4.3558,4.339,4.339,4.339,0,0,4.3165,4.3173,4.32,4.324,4.3251,4.3291,4.3233,4.3278,4.3306,4.326,4.3317,4.332,4.3334,4.3405,4.3436,4.341,4.3549,4.3504,4.3512,4.3515,4.3552,4.3568,4.3582,4.3395,4.3394,4.3393,0,0,4.3275,4.3287,4.3344,4.3356,4.3373,4.3366,4.338,4.339,4.3389,4.3447,4.3412,4.3445,4.3502,4.3514,4.3527,4.364,4.3611,4.365,4.3715,4.3754,4.3767,4.3779,4.3817,4.3831,4.3659,4.3659,4.3659,0,4.3335,4.3395,4.3376,4.3423,4.344,4.3401,4.3457,4.3469,4.3495,4.3507,4.3478,4.3548,4.3555,4.3626,4.3653,4.3666,4.3679,4.3649,4.3767,4.3779,4.3789,4.3825,4.384,4.3664,4.3663,4.3663,4.3662,0,4.3465,4.3507,4.3551,4.3577,4.36,4.3651,4.3638,4.3663,4.3645,4.3641,4.3699,4.3706,4.3736,4.3752,4.3736,4.382,4.3803,4.3772,4.3719,4.381,4.3843,4.3857,4.367,4.3669,4.3667,4.3666,0,0,4.3619,4.3634,4.365,4.366,4.3676,4.3707,4.3755,4.3785,4.3806,4.3825,4.3863,4.3912,4.3882,4.3897,4.3881,4.3916,4.4002,4.3879,4.3879,4.39,4.4094,4.4116,4.4133,4.3984,4.3986,4.3988,4.4092,0,4.3727,4.3812,4.3796,4.3878,4.3915,4.3877,4.3919,4.3932,4.3928,4.3958,4.3954,4.3988,4.3947,4.3956,4.3988,4.3985,4.404,4.3977,4.4017,4.4019,4.4013,4.4151,4.4176,4.4273,4.4105,4.4107,4.4109,0,4.3865,4.3889,4.3975,4.3983,4.3998,4.4036,4.4061,4.409,4.4103,4.4098,4.4115,4.4092,4.4138,4.4086,4.4148,4.4105,4.4121,4.4121,4.4124,4.4126,4.4068,4.4155,4.4304,4.4318,4.4129,4.4128,4.4126,0,4.3966,4.402,4.4078,4.4088,4.4099,4.4126,4.4132,4.4142,4.416,4.4182,4.4193,4.4219,4.4233,4.4253,4.4237,4.4201,4.4301,4.4248,4.4297,4.4297,4.4318,4.4317,4.447,4.4331,4.4331,4.4331,4.433,0,4.4088,4.4142,4.4123,4.4159,4.4217,4.4196,4.4254,4.4255,4.4264,4.4297,4.4266,4.4298,4.4275,4.4305,4.4293,4.4344,4.4351,4.4347,4.4343,4.4349,4.435,4.4358,4.435,4.4335,4.4334,4.4333,4.4332,0,4.421,4.4201,4.4261,4.4266,4.4268,4.431,4.4314,4.4346,4.434,4.4382,4.4391,4.4382,4.4415,4.4401,4.4436,4.4427,4.4493,4.4481,4.4489,4.4485,4.4534,4.4529,4.4697,4.4717,4.4566,4.4568,4.4569,0,4.4288,4.4328,4.4337,4.4358,4.4366,4.4399,4.4418,4.4398,4.4418,4.4435,4.4465,4.4495,4.4518,4.4572,4.4567,4.4593,4.458,4.4637,4.4584,4.4588,4.4579,4.4576,4.4579,4.4647,4.4649,4.4651,4.4652,0,4.4426,4.4419,4.4447,4.4473,4.4496,4.4516,4.4532,4.4551,4.4532,4.4556,4.4589,4.4607,4.4642,4.4672,4.4694,4.4698,4.4671,4.4669,4.4681,4.4687,4.4689,4.4687,4.4517,4.4665,4.4663,4.4662,4.4662,4.4661,4.4527,4.456,4.4571,4.4603,4.4614,4.4629,4.4659,4.4657,4.4685,4.4712,4.4699,4.4737,4.4747,4.4774,4.4782,4.481,4.4788,4.4806,4.481,4.4815,4.482,4.4686,4.4815,4.4814,4.4814,4.4814,4.4813,0,4.4662,4.4667,4.4696,4.472,4.4745,4.4719,4.4735,4.4757,4.4791,4.4803,4.4826,4.4863,4.4892,4.4889,4.4915,4.4938,4.4926,4.4945,4.4942,4.4943,4.484,4.4826,4.4954,4.4954,4.4954,4.4954,4.4954,4.4954,4.4735,4.4789,4.4783,4.484,4.4844,4.4882,4.4893,4.4907,4.4916,4.4959,4.4983,4.4981,4.4987,4.5012,4.5036,4.5035,4.5045,4.5068,4.5062,4.4965,4.4951,4.4937,4.4924,4.5071,4.5071,4.5162,4.5163,4.5164]}]]